Tracking 25953 objects as of 15-Aug-2022
HD Live streaming from Space Station
objects crossing your sky now

SL-24 R/B

Track SL-24 R/B now!
10-day predictions


NORAD ID: 40541
Int'l Code: 2015-014C
Perigee: 531.6 km
Apogee: 1,442.2 km
Inclination: 97.4 °
Period: 104.7 minutes
Semi major axis: 7357 km
RCS: Unknown
Launch date: March 25, 2015
Source: Commonwealth of Independent States (former USSR) (CIS)
Launch site: Orenburg, Russia (OREN)

Note: This is a ROCKET BODY
aabbcc
Your satellite tracking list
Your tracking list is empty




NASA's NSSDC Master Catalog

Two Line Element Set (TLE):
1 40541U 15014C   22227.33796417  .00000326  00000-0  90986-4 0  9997
2 40541  97.3845 328.2161 0618790 210.3718 146.0197 13.75527985370918
Source of the keplerian elements: AFSPC